Wind_Speed
17 17 18 18 19 19 19 18 18 18 17 18 18 18 18 18 18 19 19 19 19 20 20 20 20 21 21 20 20 20 20 20 19 19 19 19 18 17 17 17 16 16 15 15 14 14 12 11 11
18 18 19 20 20 20 20 20 20 20 19 20 20 20 20 20 20 20 20 21 21 21 21 21 21 22 22 22 22 22 22 22 21 21 21 20 20 19 19 19 18 17 16 16 15 15 14 13 12
19 20 21 21 21 21 21 21 22 22 21 22 22 23 23 22 22 22 22 23 23 23 23 23 23 24 24 24 24 24 24 24 23 23 23 22 21 21 21 20 20 19 18 18 17 16 16 15 14
21 22 23 23 23 22 23 23 24 24 24 24 25 25 25 25 25 25 25 25 25 25 25 26 26 26 26 26 26 26 25 25 25 25 24 24 23 22 22 22 21 20 19 19 19 18 17 17 16
23 24 24 25 25 24 25 25 25 26 26 26 27 27 27 27 27 28 28 28 28 28 27 28 28 28 29 29 29 28 28 27 27 27 26 26 25 24 24 23 22 21 21 20 20 20 19 19 18
24 25 26 26 26 26 26 27 28 28 28 28 29 29 29 29 29 30 30 30 30 30 31 30 30 30 31 32 32 31 31 30 29 30 29 28 28 27 26 26 25 23 23 23 22 21 21 20 20
25 26 27 27 27 27 27 28 29 30 30 30 30 31 30 31 31 31 32 32 32 33 33 33 33 33 34 34 34 34 34 33 32 32 32 31 30 29 29 29 28 26 25 25 24 23 23 22 22
26 27 27 28 28 28 29 30 30 31 31 31 31 32 32 32 33 33 34 34 35 35 36 35 35 35 36 36 36 37 37 36 34 34 34 33 32 32 31 30 30 29 28 26 26 25 24 24 24
27 28 29 29 29 29 30 31 32 33 33 33 32 33 33 34 34 35 35 36 36 37 37 37 37 37 38 38 39 38 39 38 37 36 36 36 35 34 33 32 31 31 31 30 29 27 26 25 25
28 29 30 30 31 31 31 32 33 33 33 33 34 34 34 35 35 36 36 36 37 37 38 39 39 39 39 40 40 41 41 41 40 39 38 38 37 36 36 35 34 33 33 33 31 30 28 27 27
29 30 30 31 31 32 32 32 33 34 34 34 35 35 35 36 36 36 37 37 38 39 40 40 40 40 40 41 42 42 42 42 42 41 41 40 40 39 38 38 37 36 35 34 33 32 30 28 28
29 30 30 31 32 32 33 33 34 35 35 35 35 36 36 36 37 37 38 38 39 39 40 41 41 41 42 42 42 43 43 43 43 43 43 43 42 41 40 40 39 38 37 37 35 34 32 31 30
29 29 30 31 31 32 33 33 34 34 35 35 36 36 37 37 38 38 38 39 40 40 41 41 41 42 43 43 42 43 44 44 44 43 43 44 44 43 42 42 41 40 40 39 38 37 35 33 32
28 29 29 30 31 32 32 32 33 33 34 34 36 37 37 37 38 39 39 40 40 40 40 40 40 41 42 43 42 43 45 45 45 44 44 44 45 45 45 44 43 42 42 41 40 38 37 35 35
28 28 29 30 30 31 31 32 32 32 33 34 35 36 37 38 38 39 39 39 40 40 40 40 41 41 43 44 43 44 45 46 46 45 44 45 45 46 46 46 45 44 43 42 42 40 39 38 37
28 29 29 29 30 30 31 31 32 33 33 34 35 36 36 37 38 38 39 40 40 40 41 41 40 41 43 44 44 44 45 46 47 47 45 45 46 46 46 47 46 45 45 44 43 42 41 40 38
28 29 29 28 29 29 31 31 31 32 33 34 35 36 36 36 37 37 38 39 39 40 41 42 42 41 43 44 44 44 45 46 47 48 46 45 46 46 46 47 47 46 46 45 45 44 43 42 41
29 29 28 28 28 29 30 31 31 31 32 33 34 34 35 35 36 37 37 38 39 39 41 42 42 42 43 44 45 45 45 46 48 48 48 46 46 47 47 47 47 47 47 46 45 45 45 43 42
29 29 29 28 29 29 30 30 29 30 30 31 32 34 35 36 36 37 38 38 38 38 39 40 41 41 42 43 44 44 44 46 48 49 49 48 47 48 48 48 47 47 48 48 47 46 45 44 42
29 29 29 29 29 30 29 28 28 30 31 31 33 34 35 35 36 36 37 37 37 38 39 40 41 42 42 42 43 44 44 45 46 47 48 49 48 47 48 48 48 48 48 48 48 47 46 45 44
30 30 30 30 30 30 30 28 27 28 30 30 31 33 34 35 35 35 35 35 36 38 39 40 41 42 42 42 43 43 44 44 44 46 47 48 48 48 48 48 48 48 48 49 49 48 48 47 46
30 30 30 30 30 30 30 30 26 27 28 29 30 31 32 33 33 34 34 34 36 37 37 38 39 39 41 42 43 44 44 44 44 45 47 48 48 48 49 49 49 48 49 49 49 49 48 48 47
30 30 30 30 30 30 29 30 27 27 27 28 29 30 30 30 31 32 32 33 35 36 36 37 37 38 39 41 43 44 45 45 45 46 46 47 48 47 49 49 49 49 49 49 49 49 49 49 49
31 31 31 30 30 30 28 30 29 27 27 27 27 27 28 28 29 30 30 32 34 34 35 35 36 37 38 40 42 43 44 46 46 46 46 47 47 47 48 49 49 49 49 50 49 50 50 50 50
31 30 30 30 29 29 29 30 29 28 27 27 27 27 27 28 29 30 30 31 32 32 33 35 36 36 38 39 40 41 43 44 44 45 46 47 47 47 48 49 49 49 49 49 49 50 50 50 50
31 31 30 32 32 31 30 30 30 29 28 28 28 28 28 28 29 29 30 31 30 31 32 34 34 35 36 37 38 40 42 43 43 44 46 47 47 48 48 48 49 49 49 49 49 50 50 50 50
32 31 31 32 33 33 31 31 30 30 29 27 27 27 28 29 29 29 29 30 30 31 32 33 33 34 35 36 37 39 41 42 43 44 45 46 46 47 47 48 49 50 49 49 49 50 50 51 51
32 32 31 32 34 34 33 32 31 30 30 28 27 27 28 28 28 29 30 30 30 31 32 32 33 33 34 35 36 37 39 41 42 43 43 44 45 45 46 47 48 49 49 50 49 50 50 51 51
31 32 32 33 33 34 35 33 33 32 31 30 29 28 29 28 29 29 30 31 30 31 31 32 32 33 34 34 36 37 38 39 41 42 42 43 44 44 45 46 48 48 48 48 49 50 51 51 51
32 32 32 33 33 33 34 33 32 31 31 30 30 29 29 29 29 30 31 32 32 31 31 31 31 32 33 34 35 36 38 39 40 41 42 43 44 44 44 45 47 47 46 47 48 49 50 51 51
Wind_Direction
266 264 262 262 262 262 262 263 263 263 263 262 261 259 257 257 256 255 253 252 249 248 246 244 243 241 240 239 238 239 239 241 242 243 242 241 241 240 239 239 239 236 234 232 231 231 231 231 230
266 265 263 263 263 264 263 263 263 263 262 262 261 260 258 258 258 257 255 253 251 249 249 248 246 243 241 240 239 240 239 239 241 243 243 243 242 239 239 239 239 239 237 234 233 233 233 233 233
267 265 264 264 265 266 264 263 262 261 261 261 262 261 260 259 258 257 256 255 254 251 250 249 248 246 244 243 241 241 242 241 242 243 243 244 243 242 238 239 240 240 238 236 234 233 233 234 234
269 267 265 265 265 265 264 263 263 263 263 262 262 262 262 261 259 258 257 256 255 254 251 250 250 247 246 245 244 242 243 243 242 242 243 243 242 242 240 240 239 238 238 238 236 235 235 235 236
269 268 266 266 266 266 264 264 264 265 264 264 263 262 262 262 261 259 258 257 256 255 254 252 252 250 248 247 246 243 243 243 243 243 242 242 242 241 241 240 240 239 238 239 238 237 237 238 238
270 269 268 268 267 267 266 264 264 264 264 264 263 262 261 261 260 259 258 256 256 255 255 253 254 253 251 249 247 246 245 244 244 244 244 244 242 240 240 240 240 243 240 240 240 239 239 239 239
271 270 269 269 268 268 267 266 265 264 264 263 263 262 261 260 260 260 258 256 256 255 255 255 255 254 252 250 248 246 245 245 245 244 245 244 244 243 243 242 240 241 242 241 241 241 241 241 240
272 271 270 270 269 268 267 267 266 265 264 264 263 263 262 261 261 260 260 258 257 257 256 256 256 255 253 250 248 246 245 244 244 244 244 244 244 244 244 244 242 241 242 243 243 243 242 242 242
273 272 272 272 271 270 269 267 266 266 265 264 263 263 262 262 262 261 261 260 259 258 257 258 257 256 254 251 248 247 245 244 244 244 244 243 244 244 245 244 244 242 242 243 245 245 244 243 243
275 275 274 273 272 271 270 268 268 267 267 265 263 263 263 262 262 263 263 262 260 260 259 259 259 257 255 252 249 247 246 244 243 243 244 244 244 244 245 245 244 243 243 243 244 246 245 244 244
278 278 277 276 274 272 270 269 269 268 267 266 265 264 264 263 262 262 263 262 261 261 261 260 259 258 256 253 250 247 245 244 243 243 244 244 244 243 244 245 245 244 244 244 244 245 244 244 245
281 281 279 277 276 274 273 271 270 270 269 268 266 265 264 264 263 263 263 263 262 262 262 261 259 258 256 253 251 248 245 244 243 242 243 243 244 243 243 244 244 244 244 245 245 245 244 244 245
283 282 280 278 277 276 275 273 273 272 271 269 267 265 264 264 263 263 263 263 262 262 262 260 258 257 256 254 252 249 246 244 244 243 243 243 244 243 243 243 243 243 243 243 243 243 243 243 244
284 283 281 280 279 277 276 276 275 273 271 269 267 266 265 265 264 263 263 263 262 261 261 260 259 258 256 254 253 250 247 245 244 244 244 242 242 243 242 242 243 243 243 242 243 243 243 244 244
285 284 282 281 280 279 278 277 276 274 271 269 268 267 266 265 264 264 263 263 262 261 260 260 259 258 256 255 253 250 248 247 246 244 244 242 242 242 242 242 242 242 243 243 243 243 243 244 245
287 285 284 284 282 281 279 279 278 276 273 271 270 269 268 267 266 264 263 263 263 262 261 260 260 259 257 255 252 250 249 247 246 244 244 243 242 242 241 241 241 242 243 242 243 243 243 243 244
290 288 286 285 284 282 281 281 279 277 275 271 270 269 268 268 267 265 264 264 263 263 262 260 260 260 257 254 252 250 248 247 245 244 243 243 242 241 241 242 241 241 242 243 242 242 243 244 245
294 291 288 286 285 284 283 282 280 277 276 273 271 269 269 269 268 266 265 265 264 263 262 261 260 259 257 254 252 251 249 247 245 244 242 243 242 241 241 241 242 241 242 242 242 243 243 244 245
294 292 289 288 287 286 285 284 281 277 275 274 273 272 271 269 269 268 266 266 265 264 263 262 261 259 257 254 252 250 248 247 245 244 243 242 242 242 241 241 242 242 242 242 242 243 243 243 244
295 294 292 290 289 288 287 286 282 279 277 275 275 274 273 272 270 268 266 266 266 264 263 262 261 260 258 255 253 250 249 247 246 246 244 242 243 242 242 241 242 243 243 242 243 243 243 244 245
295 293 291 291 290 289 288 286 285 281 281 278 277 277 276 274 273 269 266 266 266 265 264 264 263 261 258 255 254 251 248 247 246 245 243 243 243 242 242 241 242 242 242 243 244 244 243 243 244
295 293 291 291 291 290 290 289 286 284 283 281 280 279 279 276 273 270 267 267 267 266 265 264 263 261 258 256 254 251 248 246 246 245 244 243 243 243 242 241 242 242 243 244 244 244 243 243 244
295 294 291 291 290 290 289 289 287 287 286 284 283 282 281 279 276 272 270 270 269 267 266 265 263 262 259 256 254 252 250 247 246 245 244 243 243 242 242 240 241 242 242 243 243 242 242 243 245
295 292 289 289 290 291 290 289 288 289 289 287 285 285 282 281 279 274 273 275 272 269 266 264 263 262 259 256 254 252 250 247 247 245 243 243 243 243 242 241 241 242 242 243 244 243 243 244 245
292 292 289 290 291 292 290 288 288 290 291 291 290 286 283 283 281 279 275 277 273 270 266 265 264 261 259 257 254 252 250 248 246 245 244 244 244 245 243 241 241 241 241 243 244 243 243 244 244
291 291 289 289 290 291 290 288 289 289 292 292 291 288 285 284 282 280 278 279 276 272 269 268 266 262 261 258 255 253 250 248 246 245 245 244 245 245 244 243 243 241 241 243 243 243 243 244 244
291 289 288 287 289 289 290 290 289 289 291 293 291 288 287 285 282 280 280 280 279 276 273 270 267 263 261 259 256 254 251 249 248 247 245 245 245 245 244 243 242 242 242 242 243 243 242 243 244
290 290 288 287 289 289 288 290 292 290 288 289 289 288 288 285 282 281 281 282 279 276 274 272 268 263 260 259 257 255 252 251 250 248 247 246 246 245 244 243 243 243 243 243 243 243 243 243 243
289 287 286 285 287 288 288 288 291 291 291 290 289 289 288 287 284 283 282 281 281 277 273 272 268 263 260 259 257 256 254 253 251 248 247 246 246 245 244 244 244 243 244 244 243 243 243 243 242
288 287 286 285 285 285 287 288 289 290 289 290 289 289 287 286 286 285 284 282 280 278 274 272 268 264 262 260 260 258 257 254 251 249 247 247 246 245 245 246 245 244 245 245 244 244 243 242 242
Height
5816 5816 5816 5816 5817 5816 5816 5817 5817 5817 5817 5817 5817 5817 5818 5819 5820 5822 5821 5820 5821 5822 5822 5823 5824 5825 5826 5827 5828 5829 5830 5831 5832 5833 5834 5835 5836 5837 5838 5838 5839 5840 5841 5842 5843 5843 5844 5845 5846
5812 5812 5813 5812 5812 5812 5813 5813 5813 5813 5813 5813 5813 5813 5813 5814 5815 5815 5816 5816 5816 5817 5818 5818 5820 5821 5822 5823 5824 5825 5826 5827 5828 5829 5831 5832 5833 5833 5834 5835 5837 5837 5838 5839 5840 5841 5842 5843 5844
5808 5808 5808 5807 5807 5808 5809 5809 5809 5809 5809 5809 5809 5809 5809 5809 5810 5810 5811 5811 5812 5812 5813 5814 5815 5816 5817 5818 5820 5821 5822 5823 5824 5826 5827 5828 5829 5830 5831 5832 5833 5834 5835 5836 5837 5838 5839 5840 5841
5803 5803 5803 5803 5803 5803 5804 5804 5803 5803 5804 5804 5803 5804 5804 5804 5804 5805 5805 5806 5806 5807 5808 5809 5810 5811 5812 5813 5815 5816 5817 5819 5820 5821 5823 5824 5825 5827 5828 5829 5830 5831 5832 5833 5834 5835 5836 5838 5839
5798 5797 5797 5797 5797 5798 5798 5798 5798 5798 5798 5798 5798 5798 5798 5798 5798 5798 5799 5800 5800 5801 5801 5803 5803 5805 5806 5808 5809 5811 5812 5814 5815 5817 5818 5819 5821 5822 5824 5825 5826 5827 5828 5830 5831 5832 5833 5834 5835
5792 5791 5791 5791 5792 5792 5792 5792 5791 5791 5791 5791 5791 5791 5791 5791 5791 5792 5792 5793 5793 5794 5795 5795 5796 5798 5799 5801 5803 5804 5806 5808 5809 5811 5813 5814 5816 5818 5819 5820 5822 5823 5825 5826 5827 5828 5829 5830 5832
5786 5785 5784 5785 5785 5786 5786 5785 5784 5784 5784 5784 5783 5783 5783 5784 5784 5784 5785 5785 5786 5786 5787 5788 5789 5790 5792 5793 5795 5797 5799 5801 5803 5805 5806 5808 5810 5812 5814 5815 5817 5819 5820 5821 5822 5824 5825 5826 5828
5779 5779 5777 5777 5778 5779 5778 5777 5777 5776 5776 5776 5776 5775 5776 5776 5776 5776 5777 5777 5778 5778 5779 5780 5781 5782 5783 5785 5787 5789 5791 5793 5796 5798 5800 5802 5804 5806 5808 5810 5811 5813 5815 5816 5818 5819 5821 5822 5823
5772 5772 5770 5770 5771 5771 5770 5769 5768 5768 5768 5768 5767 5768 5768 5768 5768 5768 5768 5768 5769 5770 5770 5771 5772 5773 5774 5775 5778 5780 5782 5785 5788 5790 5793 5795 5797 5800 5802 5803 5805 5807 5809 5811 5813 5814 5816 5817 5819
5765 5764 5764 5763 5762 5762 5761 5760 5759 5759 5759 5758 5759 5759 5758 5759 5759 5759 5759 5759 5760 5760 5760 5761 5762 5763 5764 5765 5768 5770 5773 5776 5779 5782 5784 5787 5790 5792 5795 5797 5799 5801 5803 5805 5807 5809 5810 5812 5814
5757 5756 5755 5754 5753 5752 5752 5751 5750 5749 5749 5749 5750 5749 5749 5749 5749 5749 5749 5749 5749 5750 5750 5750 5751 5752 5753 5755 5757 5760 5763 5766 5769 5772 5775 5778 5781 5784 5787 5789 5791 5794 5796 5798 5800 5802 5804 5806 5808
5749 5748 5746 5745 5743 5742 5742 5741 5741 5740 5741 5740 5740 5739 5739 5739 5739 5739 5739 5738 5738 5739 5739 5739 5739 5741 5742 5744 5746 5749 5752 5755 5758 5762 5765 5768 5771 5775 5778 5781 5783 5786 5788 5791 5793 5795 5798 5800 5802
5741 5739 5737 5736 5734 5733 5732 5732 5731 5731 5731 5730 5729 5729 5729 5729 5729 5728 5728 5727 5727 5727 5727 5727 5728 5729 5731 5733 5735 5738 5741 5744 5747 5751 5754 5758 5761 5764 5768 5772 5775 5777 5780 5783 5785 5788 5790 5793 5795
5733 5731 5729 5728 5726 5724 5723 5722 5722 5721 5720 5719 5718 5718 5718 5718 5718 5717 5717 5716 5716 5716 5716 5716 5717 5718 5720 5721 5724 5726 5729 5733 5736 5739 5743 5746 5750 5754 5758 5762 5765 5768 5771 5774 5777 5780 5783 5785 5787
5725 5723 5722 5720 5718 5716 5714 5713 5713 5711 5710 5709 5708 5707 5707 5706 5706 5706 5706 5705 5705 5705 5705 5706 5706 5707 5708 5710 5712 5715 5718 5721 5724 5728 5731 5735 5739 5743 5747 5751 5755 5759 5762 5765 5768 5771 5774 5777 5779
5718 5716 5714 5712 5710 5707 5707 5705 5704 5701 5700 5698 5697 5697 5696 5696 5695 5694 5694 5694 5694 5694 5694 5694 5695 5695 5696 5698 5700 5703 5706 5709 5712 5716 5720 5723 5727 5731 5736 5740 5744 5748 5752 5755 5758 5762 5765 5768 5771
5710 5708 5706 5704 5701 5699 5697 5696 5695 5692 5690 5688 5687 5686 5685 5684 5684 5683 5682 5682 5682 5682 5682 5682 5683 5684 5684 5686 5688 5690 5693 5697 5700 5704 5708 5712 5716 5720 5724 5729 5733 5738 5742 5745 5749 5752 5756 5759 5762
5703 5700 5697 5696 5693 5691 5689 5688 5686 5683 5680 5679 5677 5676 5675 5674 5673 5672 5671 5671 5671 5671 5670 5670 5671 5671 5672 5673 5675 5678 5681 5684 5688 5692 5696 5700 5704 5709 5713 5717 5722 5727 5731 5734 5738 5742 5745 5749 5752
5695 5692 5690 5688 5685 5683 5680 5679 5677 5674 5672 5670 5668 5666 5664 5663 5662 5661 5660 5660 5660 5659 5659 5658 5658 5659 5659 5661 5663 5665 5669 5672 5675 5679 5683 5688 5692 5697 5701 5706 5710 5715 5719 5723 5727 5731 5734 5738 5741
5687 5684 5682 5680 5677 5674 5672 5670 5668 5665 5663 5661 5658 5656 5654 5653 5651 5650 5649 5649 5648 5648 5647 5646 5646 5646 5647 5648 5651 5653 5656 5659 5663 5667 5671 5675 5680 5685 5689 5693 5698 5703 5707 5712 5716 5720 5723 5727 5731
5680 5677 5674 5671 5669 5666 5663 5661 5659 5656 5653 5651 5648 5646 5644 5642 5641 5640 5639 5638 5638 5636 5635 5634 5634 5634 5635 5636 5638 5641 5644 5647 5651 5654 5659 5663 5668 5672 5677 5681 5686 5690 5695 5700 5704 5708 5712 5716 5720
5672 5669 5666 5663 5660 5657 5655 5651 5651 5647 5644 5641 5639 5637 5635 5633 5631 5630 5628 5628 5627 5625 5624 5623 5622 5622 5623 5624 5626 5629 5632 5635 5639 5643 5647 5651 5655 5660 5664 5669 5674 5678 5683 5687 5692 5696 5700 5705 5709
5664 5661 5658 5655 5651 5649 5646 5642 5642 5639 5636 5633 5630 5628 5626 5624 5622 5620 5619 5617 5615 5613 5612 5612 5611 5611 5611 5612 5614 5616 5619 5623 5627 5630 5634 5639 5643 5647 5652 5656 5661 5665 5670 5675 5679 5684 5688 5693 5698
5655 5652 5649 5646 5643 5641 5638 5634 5632 5630 5627 5625 5622 5619 5617 5615 5613 5611 5609 5607 5604 5602 5601 5601 5600 5600 5600 5601 5602 5604 5607 5610 5614 5618 5622 5627 5631 5635 5639 5643 5648 5653 5658 5663 5667 5672 5677 5681 5686
5647 5644 5640 5636 5634 5632 5629 5626 5625 5622 5619 5616 5614 5611 5608 5606 5604 5601 5600 5597 5595 5592 5591 5590 5590 5589 5589 5589 5590 5592 5595 5598 5602 5606 5611 5615 5619 5623 5626 5630 5636 5640 5645 5650 5655 5659 5664 5669 5673
5638 5635 5632 5628 5625 5624 5621 5617 5617 5613 5611 5608 5605 5603 5601 5598 5595 5593 5591 5588 5585 5583 5581 5580 5579 5579 5579 5579 5580 5581 5584 5587 5591 5595 5598 5602 5606 5610 5613 5618 5623 5627 5632 5637 5642 5646 5651 5656 5661
5629 5626 5624 5620 5616 5614 5612 5609 5608 5605 5602 5600 5597 5595 5592 5589 5587 5584 5582 5579 5576 5573 5572 5570 5569 5568 5568 5569 5569 5571 5573 5577 5580 5583 5586 5590 5594 5597 5600 5605 5609 5614 5619 5624 5628 5633 5638 5643 5648
5620 5617 5614 5611 5607 5604 5603 5601 5599 5596 5594 5591 5589 5586 5584 5581 5578 5576 5573 5570 5567 5565 5562 5560 5558 5558 5558 5559 5560 5562 5564 5566 5569 5571 5575 5578 5581 5585 5589 5593 5597 5602 5606 5611 5615 5620 5625 5630 5635
5611 5608 5604 5602 5599 5596 5593 5595 5591 5587 5584 5582 5580 5578 5575 5573 5570 5567 5564 5561 5558 5555 5553 5551 5549 5549 5549 5550 5551 5553 5554 5556 5558 5561 5564 5567 5569 5573 5577 5580 5584 5589 5593 5598 5602 5607 5611 5616 5621
5600 5598 5596 5594 5590 5587 5584 5587 5582 5579 5576 5573 5571 5569 5567 5564 5561 5558 5555 5552 5550 5547 5544 5542 5541 5540 5540 5541 5542 5543 5545 5546 5548 5550 5553 5556 5559 5562 5566 5569 5573 5577 5581 5585 5589 5593 5598 5602 5608